Temperature
19 19 19 19 19 18 18 17 17 18 17 17 17 16 17 18 19 19 19 20 20 20 20 20 20 19 19 19 18 18 17 17 17 16 16 15 15 15 14 14 14 14 14 13
19 19 18 19 19 18 18 17 17 17 17 17 17 17 17 17 18 18 19 19 19 19 20 20 20 19 19 19 18 18 17 17 17 16 16 15 15 15 14 14 14 14 14 14
17 17 19 18 18 18 17 17 16 17 17 16 16 16 17 17 18 18 19 19 19 19 19 19 19 19 19 19 18 18 17 17 17 16 16 16 15 15 15 14 14 14 14 14
15 18 19 18 17 17 17 16 16 16 16 16 16 17 18 18 18 18 19 19 19 19 19 19 19 19 19 18 18 18 17 17 17 16 16 16 15 15 15 15 14 14 14 14
14 16 17 17 18 17 17 17 16 16 16 16 17 17 17 18 18 18 18 18 19 19 19 19 18 18 18 18 18 17 17 17 17 16 16 16 16 15 15 15 15 14 14 14
13 17 17 17 17 17 17 16 16 15 15 16 16 14 15 17 17 18 18 18 18 18 18 18 18 18 18 18 17 17 17 17 16 16 16 16 16 15 15 15 15 15 14 14
13 15 15 15 16 17 16 16 16 16 16 15 15 15 16 17 17 17 17 17 17 18 18 18 17 17 17 17 17 17 17 16 16 16 16 16 15 15 15 15 15 15 14 14
12 14 15 15 15 15 15 16 16 16 16 16 16 16 16 16 16 16 17 17 17 17 17 17 17 16 16 17 16 16 16 16 16 16 16 15 15 15 15 15 15 14 14 14
12 13 14 14 15 15 16 16 16 16 16 16 16 15 15 16 16 16 16 16 16 16 16 16 16 16 16 16 16 16 16 16 15 15 15 15 15 15 15 14 14 14 14 14
11 12 13 14 15 15 15 15 15 15 15 16 15 15 15 15 15 15 15 15 15 15 15 15 15 15 15 15 15 15 15 15 15 15 15 15 14 14 14 14 14 14 14 14
11 12 13 14 14 14 14 15 15 15 15 15 15 15 14 14 14 14 14 14 14 14 14 14 14 14 14 14 14 14 14 14 14 14 14 14 14 14 14 14 14 14 14 14
11 12 11 13 13 14 14 14 14 14 14 14 14 14 14 14 13 13 13 13 13 13 13 13 13 13 14 13 13 13 14 14 14 14 14 14 14 14 14 13 13 13 13 13
13 13 13 13 13 13 13 13 13 13 13 13 13 13 13 13 13 13 13 13 12 12 12 12 12 13 13 13 13 13 13 13 13 13 13 13 13 13 13 13 13 13 13 13
13 13 12 12 12 12 12 12 12 12 12 12 12 12 12 12 12 12 12 12 12 12 12 12 12 12 12 12 12 12 12 12 12 13 13 13 13 13 12 12 12 13 13 13
12 12 12 12 12 12 12 12 12 12 12 12 12 12 12 12 11 11 11 11 11 11 11 11 11 11 11 11 11 11 11 11 12 12 12 12 12 12 12 12 12 12 12 12
11 11 11 11 11 11 11 11 11 11 11 11 11 11 11 11 11 11 11 11 10 10 10 10 10 10 10 10 11 11 11 11 11 11 11 11 11 11 11 11 11 11 11 12
10 10 10 10 10 10 10 10 10 10 10 10 10 10 10 10 10 10 10 10 10 10 10 10 10 10 10 10 10 10 10 10 10 10 10 10 10 10 10 10 11 11 11 11
10 10 10 10 10 10 10 10 10 10 10 10 10 10 10 9 9 9 9 9 9 9 9 9 9 9 9 9 9 9 9 9 9 9 9 10 10 10 10 10 10 10 10 10
10 10 10 10 9 9 9 9 9 9 9 9 9 9 9 9 9 9 9 8 8 8 9 9 8 8 8 8 8 8 8 8 8 8 9 9 9 9 9 9 9 10 10 10
9 9 9 9 9 9 9 9 9 9 9 8 8 8 8 8 8 8 8 8 8 8 8 8 8 8 8 8 8 8 8 8 8 8 8 8 8 8 9 9 9 9 9 9
9 8 8 8 9 9 8 8 8 8 8 8 8 8 8 8 7 7 7 7 7 7 7 7 7 7 7 7 7 7 7 7 7 7 7 7 7 8 8 8 8 8 8 8
8 8 8 8 8 8 8 8 8 8 7 7 7 7 7 7 7 7 7 7 7 7 6 6 7 6 6 6 6 6 6 6 6 6 6 7 7 7 7 7 7 7 8 8
7 7 7 7 7 7 7 7 7 7 7 7 7 7 7 6 6 6 6 6 6 6 6 6 6 6 6 6 6 6 6 6 6 6 6 6 6 6 7 7 7 7 7 7
6 6 7 7 7 7 7 7 7 6 6 6 6 6 6 6 6 6 6 6 6 5 5 5 5 5 5 5 5 5 5 5 5 5 5 5 6 6 6 6 6 6 6 6
6 6 6 6 6 6 6 6 6 6 6 6 6 6 6 6 5 5 5 5 5 5 5 5 5 5 5 5 5 5 5 5 5 5 5 5 5 5 5 6 6 6 6 6
6 6 6 6 6 6 6 6 6 6 6 6 6 6 6 5 5 5 5 5 5 4 4 4 4 4 4 4 4 4 4 4 4 5 5 5 4 5 5 5 5 5 5 5
5 5 5 5 5 5 5 5 5 5 5 5 5 5 5 5 5 5 5 4 4 4 4 4 4 4 4 4 4 4 4 4 4 4 4 4 4 4 4 4 4 5 5 5
Wind_Speed
2 1 1 1 1 4 4 6 7 5 4 5 5 3 3 3 4 5 5 4 3 3 3 3 3 3 4 5 5 6 6 7 8 7 6 6 5 5 4 4 4 4 3 3
2 2 1 1 1 2 2 2 3 2 3 4 3 1 4 4 4 4 5 5 5 4 3 3 4 4 4 4 5 5 7 8 7 6 6 6 6 5 5 5 4 3 4 3
1 4 3 2 2 3 3 2 4 4 5 2 2 2 2 2 3 4 5 5 5 4 4 5 4 4 5 5 4 5 6 6 6 6 6 7 6 5 6 6 5 4 5 4
1 2 2 5 1 4 5 2 1 2 2 2 2 1 1 2 2 4 5 5 5 5 5 4 3 3 3 2 2 4 5 6 6 6 6 6 5 6 6 5 5 5 5 5
3 2 3 4 1 2 4 1 1 1 1 1 1 2 4 4 3 3 5 5 5 4 4 3 2 2 1 1 1 3 5 6 6 6 7 6 7 7 6 5 6 6 5 6
4 3 4 5 3 2 4 1 4 1 1 1 4 3 4 6 5 5 5 5 5 4 3 3 3 1 1 1 1 4 6 7 6 6 7 8 8 8 5 5 6 6 6 6
4 3 5 5 5 2 4 4 3 0 0 2 2 3 4 5 4 4 5 5 5 4 3 4 2 0 1 2 4 6 5 4 5 5 7 8 7 5 5 5 5 6 6 6
5 4 6 3 2 4 4 1 0 0 1 2 1 2 3 3 5 6 7 7 6 5 5 4 2 1 3 5 6 4 3 4 5 5 5 5 6 5 5 5 5 6 5 5
6 5 2 2 1 0 1 1 1 0 1 1 0 2 3 4 5 5 6 6 6 5 6 5 3 2 5 7 5 4 3 4 5 5 5 4 5 6 4 5 5 6 6 6
1 2 2 2 1 2 2 0 1 1 0 1 0 1 3 4 5 5 6 6 6 5 6 6 5 5 6 6 4 4 5 5 5 4 5 5 5 5 6 6 7 7 7 7
2 3 2 3 2 2 3 3 2 2 0 0 0 1 2 3 4 5 5 5 5 5 6 7 7 6 6 5 4 5 6 6 5 5 5 5 5 6 7 8 9 9 9 8
6 5 4 3 3 1 1 2 2 2 2 2 1 2 3 3 4 4 5 5 5 6 6 7 7 8 7 5 4 5 6 6 5 5 5 5 5 5 7 9 11 13 12 10
4 2 3 2 2 1 1 3 3 3 3 4 4 3 3 4 4 4 5 5 6 7 7 7 7 8 8 6 5 6 7 7 6 5 5 5 5 6 6 6 7 10 12 13
2 1 1 1 2 3 3 3 3 3 4 4 4 4 4 4 4 5 6 7 6 7 7 7 7 9 8 7 7 7 7 8 7 6 6 6 7 7 7 6 6 6 7 11
2 2 4 3 3 3 3 3 3 5 5 5 4 5 5 5 6 7 7 7 6 7 7 7 8 10 8 7 7 8 7 6 6 6 6 6 6 6 6 7 7 6 4 5
2 1 1 2 3 4 4 3 4 6 6 6 6 6 6 6 7 7 7 6 6 8 9 8 9 10 8 7 8 7 7 11 9 7 6 6 6 7 7 7 7 7 7 7
2 2 2 3 4 5 5 5 6 6 6 7 7 7 7 6 7 8 8 7 7 8 9 9 10 10 9 8 7 7 7 8 11 8 6 7 7 8 8 8 8 8 8 8
4 5 5 5 5 5 6 6 6 6 7 7 7 6 6 7 8 9 9 8 8 9 9 9 9 9 9 8 7 7 6 7 7 7 7 7 8 7 8 8 9 9 7 7
2 3 3 4 5 5 5 6 6 6 7 7 6 7 8 8 8 8 8 7 8 10 10 9 13 11 9 10 10 6 7 8 8 8 8 9 9 7 8 8 8 8 8 7
3 3 4 4 4 4 5 6 6 7 7 6 7 7 8 8 8 7 7 8 8 9 9 11 10 9 9 9 11 6 7 9 9 8 8 8 8 8 8 8 8 8 8 8
4 5 5 5 6 6 6 6 6 7 7 7 7 8 9 9 8 7 6 8 9 9 9 13 9 8 8 10 12 7 7 8 8 8 8 8 8 8 8 8 8 8 8 8
5 5 7 7 6 7 7 6 6 7 7 7 8 8 8 8 8 7 7 8 9 12 9 7 7 11 13 14 7 7 8 9 9 8 8 8 8 8 8 8 8 7 7 7
6 6 7 7 7 7 7 6 6 6 7 8 8 8 8 8 6 6 8 7 7 12 9 7 11 17 19 10 6 7 8 9 9 8 8 8 8 8 8 8 7 7 6 6
6 7 7 7 5 5 7 8 7 7 7 8 8 9 8 7 7 7 7 11 13 14 8 10 16 18 16 6 6 6 7 8 8 8 7 7 7 7 6 6 6 6 5 6
7 7 7 7 6 7 8 8 7 7 7 7 8 9 7 6 7 8 7 8 12 13 8 12 16 17 10 7 7 7 7 8 8 7 6 6 6 6 6 5 5 5 5 5
6 6 7 7 7 7 6 5 6 6 6 7 8 7 6 6 6 7 7 8 9 11 9 7 8 9 7 7 8 8 7 8 8 7 6 6 6 5 5 4 5 4 4 4
7 6 6 6 6 6 6 6 6 7 7 7 8 7 7 7 6 7 7 7 7 7 7 7 7 7 7 7 7 7 6 6 6 6 5 4 4 4 4 4 3 3 3 4
Wind_Direction
209 225 171 213 182 158 165 174 173 213 216 278 296 294 324 357 20 26 10 355 333 302 282 268 259 243 229 228 217 205 204 215 224 224 221 224 227 227 225 224 226 225 225 237
24 33 66 341 315 167 171 163 177 173 259 276 299 11 26 20 25 15 349 333 323 317 302 278 260 255 243 237 222 200 208 222 225 217 215 220 224 222 222 228 228 218 221 228
275 315 42 308 263 169 147 165 160 189 236 286 4 15 5 354 7 350 331 326 318 302 282 269 258 244 243 242 217 202 216 226 221 216 220 223 221 215 221 227 223 224 230 226
120 56 216 242 259 155 135 91 170 206 240 220 216 259 342 10 4 335 329 326 320 312 303 289 278 263 258 243 207 211 224 232 226 218 225 225 218 222 227 222 218 225 232 230
121 153 281 295 277 170 154 14 323 212 276 343 9 39 0 357 343 305 305 303 301 298 289 300 309 299 282 271 232 228 237 240 235 223 225 224 224 228 226 219 221 220 223 222
128 156 222 247 291 287 119 335 317 31 345 9 69 45 303 326 334 326 325 323 320 323 332 334 319 332 120 265 257 254 251 247 238 224 222 226 230 228 222 218 224 220 224 222
151 197 257 267 294 86 136 237 280 141 110 120 155 214 272 318 335 335 333 334 339 347 348 325 321 19 253 262 256 259 264 260 244 232 228 227 228 227 221 218 221 220 224 227
147 178 246 308 74 138 198 224 184 141 142 158 234 308 329 340 343 347 349 349 351 349 335 332 333 300 282 271 271 281 272 265 257 245 240 235 223 224 216 210 216 221 224 235
183 201 240 337 137 217 151 134 286 270 290 151 36 339 341 346 345 344 344 342 342 336 327 328 323 290 274 280 289 287 277 267 264 259 246 233 220 221 218 213 219 223 221 231
232 262 274 345 21 24 52 82 310 288 278 103 46 327 337 337 335 335 334 334 335 334 328 321 315 297 280 289 286 274 269 270 265 256 255 244 231 221 218 218 223 224 222 228
259 271 325 346 352 359 8 7 2 352 337 229 207 319 313 316 317 317 317 317 320 316 309 307 308 303 300 297 282 274 272 270 267 255 249 244 237 232 229 227 223 222 224 219
222 223 193 247 277 327 9 338 320 319 323 305 268 271 290 294 295 302 310 312 315 311 306 306 309 306 306 297 279 272 276 271 264 260 252 243 243 259 255 247 245 238 230 220
213 202 188 232 279 290 270 280 287 275 266 277 282 273 274 280 286 294 302 307 306 304 302 301 303 303 305 299 287 272 267 268 264 258 253 245 239 241 260 270 256 247 238 228
195 120 338 278 270 288 287 286 287 284 276 268 268 274 276 278 287 290 292 292 293 297 300 299 299 299 300 299 288 280 276 274 268 253 250 246 241 240 240 244 252 257 245 233
254 211 215 243 271 291 298 310 316 303 293 288 280 278 277 277 281 284 287 291 295 297 298 300 300 299 301 299 290 284 283 278 268 259 252 249 247 244 242 241 242 245 245 236
240 263 236 246 262 281 297 296 289 287 287 285 284 279 275 273 276 281 286 290 292 293 294 294 292 294 297 295 292 287 280 284 285 270 260 255 248 243 241 241 240 235 232 226
197 257 259 270 273 276 272 266 263 270 278 280 280 282 286 289 289 289 289 286 279 279 282 283 285 291 293 290 285 284 280 282 285 280 263 255 249 244 241 240 239 237 236 223
213 223 228 235 252 268 277 279 279 280 279 277 282 287 286 283 281 284 288 293 294 291 285 279 282 291 291 290 286 281 278 274 269 268 267 260 254 249 244 241 240 239 242 224
261 257 261 260 259 258 263 270 276 279 281 284 283 279 276 274 275 280 286 289 289 289 287 283 296 301 291 289 294 278 279 277 273 270 265 262 258 254 248 244 241 237 234 221
285 279 274 275 276 268 269 273 276 281 283 281 280 282 283 281 279 279 280 279 274 271 277 287 291 286 285 287 293 279 278 280 276 272 269 264 258 255 250 246 243 238 233 223
281 283 282 280 281 279 271 270 274 279 284 282 276 274 277 281 280 277 278 284 283 279 281 289 290 284 286 288 292 282 279 281 277 270 265 263 260 257 252 247 244 240 235 225
276 276 277 280 280 282 279 274 269 273 280 282 280 280 281 283 283 280 268 265 277 289 292 283 282 287 295 298 286 282 281 282 280 272 264 261 260 257 253 248 243 242 237 225
276 274 276 276 272 273 282 281 273 271 273 275 278 281 278 276 275 275 283 280 279 291 296 284 289 297 302 302 283 281 282 280 277 272 267 263 259 257 254 249 244 238 232 223
276 275 275 277 278 279 280 280 276 273 271 273 272 270 270 278 282 270 265 287 297 297 292 288 295 301 306 297 281 280 281 279 275 270 266 265 264 263 257 248 242 235 226 215
270 273 276 278 275 269 267 273 282 282 279 278 276 274 267 255 261 278 283 286 293 299 296 298 303 307 308 293 286 282 282 279 276 272 263 262 262 261 258 247 239 230 218 209
267 269 269 262 259 264 266 268 271 276 277 281 285 280 274 270 266 273 280 280 281 291 292 289 294 299 297 293 291 290 288 289 291 284 269 265 263 263 261 251 237 227 214 203
271 269 269 273 270 259 255 256 263 269 268 267 276 279 278 279 279 279 279 282 285 287 286 287 289 291 292 294 296 297 297 294 293 291 279 267 266 263 260 248 234 218 201 191
Height
1488 1486 1487 1488 1489 1492 1494 1499 1506 1501 1501 1495 1490 1488 1486 1484 1483 1483 1482 1482 1482 1482 1483 1483 1484 1484 1485 1486 1488 1489 1490 1490 1491 1491 1492 1492 1492 1492 1492 1492 1492 1491 1491 1491
1489 1487 1488 1489 1488 1490 1492 1494 1497 1497 1498 1490 1488 1487 1485 1484 1484 1483 1483 1483 1482 1482 1481 1481 1482 1482 1483 1483 1484 1485 1486 1487 1488 1488 1488 1489 1489 1489 1489 1489 1489 1489 1489 1488
1498 1493 1489 1496 1490 1490 1492 1491 1493 1497 1494 1489 1488 1487 1486 1485 1484 1484 1483 1483 1482 1481 1480 1480 1480 1480 1480 1481 1481 1482 1482 1483 1484 1484 1485 1485 1486 1486 1486 1486 1486 1486 1486 1486
1501 1496 1503 1496 1484 1485 1488 1490 1489 1489 1488 1487 1487 1486 1486 1486 1485 1484 1483 1482 1481 1479 1479 1478 1478 1478 1478 1478 1478 1479 1479 1480 1480 1480 1481 1481 1482 1482 1482 1482 1482 1482 1482 1483
1506 1504 1501 1491 1484 1485 1488 1491 1488 1487 1486 1486 1486 1485 1486 1486 1485 1484 1483 1482 1480 1479 1478 1477 1477 1476 1476 1476 1475 1475 1475 1476 1476 1476 1477 1477 1477 1478 1478 1478 1478 1478 1479 1479
1505 1502 1504 1492 1483 1481 1485 1493 1487 1486 1486 1486 1486 1491 1489 1486 1484 1483 1482 1481 1479 1478 1477 1475 1475 1474 1474 1473 1472 1472 1472 1472 1472 1472 1472 1472 1473 1473 1474 1474 1474 1474 1474 1475
1504 1502 1497 1486 1482 1482 1495 1495 1487 1485 1485 1486 1486 1489 1487 1485 1484 1483 1481 1480 1478 1476 1475 1474 1473 1472 1471 1470 1470 1469 1469 1469 1468 1468 1468 1468 1468 1468 1469 1469 1469 1469 1469 1470
1504 1503 1500 1484 1482 1487 1489 1485 1485 1485 1485 1485 1485 1485 1485 1484 1483 1481 1479 1478 1476 1474 1473 1472 1470 1469 1468 1467 1467 1466 1466 1465 1464 1464 1463 1463 1463 1463 1463 1464 1464 1464 1464 1464
1493 1493 1486 1484 1484 1484 1484 1484 1484 1484 1484 1484 1484 1484 1483 1482 1481 1480 1478 1476 1475 1473 1471 1469 1468 1466 1465 1464 1463 1462 1461 1460 1459 1459 1458 1458 1458 1457 1458 1458 1458 1458 1458 1459
1489 1485 1484 1483 1483 1483 1484 1483 1483 1483 1483 1483 1482 1482 1481 1480 1479 1478 1476 1475 1473 1470 1468 1466 1465 1463 1462 1460 1459 1458 1456 1455 1454 1453 1453 1452 1452 1452 1451 1451 1452 1452 1452 1453
1487 1484 1482 1482 1482 1483 1482 1482 1482 1482 1482 1481 1481 1480 1480 1478 1477 1476 1474 1472 1470 1468 1465 1463 1461 1460 1458 1456 1454 1453 1451 1450 1449 1448 1447 1446 1446 1446 1445 1445 1446 1446 1446 1447
1484 1480 1481 1481 1481 1482 1481 1481 1481 1480 1480 1480 1480 1478 1477 1476 1475 1473 1472 1469 1467 1465 1462 1460 1458 1456 1454 1452 1450 1448 1446 1444 1443 1442 1441 1440 1439 1438 1438 1439 1439 1439 1440 1441
1477 1477 1478 1479 1479 1480 1479 1479 1479 1478 1478 1478 1477 1476 1475 1473 1472 1470 1468 1466 1464 1461 1459 1456 1454 1451 1449 1447 1445 1443 1440 1439 1437 1436 1434 1433 1432 1431 1430 1430 1431 1431 1432 1433
1475 1475 1476 1476 1477 1477 1477 1476 1476 1475 1475 1475 1474 1473 1471 1470 1468 1466 1465 1463 1460 1458 1455 1453 1450 1447 1445 1442 1440 1437 1435 1433 1431 1429 1428 1427 1426 1425 1424 1423 1422 1422 1424 1425
1472 1473 1473 1474 1474 1474 1474 1473 1472 1472 1471 1470 1470 1468 1467 1465 1464 1462 1460 1458 1456 1453 1450 1448 1445 1442 1440 1437 1434 1431 1429 1426 1424 1422 1421 1420 1419 1418 1417 1416 1415 1415 1416 1417
1470 1470 1470 1470 1470 1470 1470 1469 1469 1468 1467 1466 1465 1464 1462 1461 1459 1457 1455 1453 1450 1447 1445 1442 1439 1437 1434 1431 1428 1425 1422 1420 1418 1416 1414 1412 1411 1410 1409 1408 1408 1407 1407 1408
1466 1466 1467 1467 1467 1467 1466 1466 1465 1464 1462 1461 1460 1459 1457 1455 1453 1451 1449 1447 1445 1442 1440 1437 1434 1431 1428 1425 1422 1419 1416 1413 1411 1409 1406 1405 1403 1402 1401 1400 1400 1399 1399 1400
1464 1464 1464 1464 1464 1463 1462 1461 1461 1459 1458 1456 1455 1453 1451 1449 1447 1445 1443 1441 1438 1436 1434 1431 1428 1425 1422 1419 1415 1412 1409 1406 1403 1401 1398 1397 1395 1394 1393 1392 1391 1391 1391 1392
1461 1461 1461 1461 1460 1459 1458 1457 1456 1455 1453 1451 1450 1448 1446 1444 1441 1439 1437 1434 1431 1428 1426 1424 1421 1418 1415 1412 1408 1405 1401 1398 1395 1393 1391 1389 1387 1386 1385 1384 1383 1383 1383 1384
1458 1458 1457 1456 1456 1455 1453 1452 1451 1449 1448 1446 1444 1442 1439 1437 1435 1433 1430 1428 1425 1423 1419 1417 1413 1410 1407 1404 1401 1398 1394 1391 1388 1385 1383 1381 1379 1377 1376 1375 1374 1374 1374 1375
1454 1454 1453 1452 1451 1450 1449 1447 1446 1444 1442 1441 1438 1436 1433 1431 1429 1426 1423 1421 1418 1416 1413 1410 1407 1403 1400 1396 1393 1390 1387 1383 1380 1377 1375 1372 1370 1369 1367 1367 1366 1366 1366 1367
1450 1449 1448 1447 1445 1444 1443 1442 1440 1439 1437 1435 1433 1431 1428 1425 1422 1420 1417 1415 1412 1409 1406 1403 1400 1396 1393 1389 1386 1382 1379 1376 1373 1370 1367 1365 1363 1361 1359 1359 1358 1358 1358 1359
1445 1444 1443 1442 1440 1439 1437 1436 1435 1433 1431 1429 1427 1425 1422 1420 1417 1414 1411 1408 1406 1402 1399 1396 1393 1389 1386 1382 1378 1375 1372 1368 1365 1362 1360 1357 1355 1354 1352 1351 1351 1351 1351 1351
1440 1439 1438 1437 1435 1434 1432 1430 1430 1428 1426 1424 1422 1420 1417 1414 1411 1409 1406 1402 1399 1396 1392 1389 1386 1382 1378 1375 1371 1368 1364 1361 1357 1354 1352 1350 1348 1347 1345 1344 1344 1344 1344 1344
1435 1434 1433 1432 1430 1428 1427 1425 1424 1422 1420 1418 1416 1414 1412 1409 1406 1403 1400 1396 1393 1390 1386 1383 1380 1376 1372 1369 1365 1361 1357 1354 1351 1348 1346 1344 1342 1341 1339 1338 1338 1338 1338 1338
1429 1428 1427 1426 1424 1423 1421 1420 1418 1416 1414 1411 1409 1407 1405 1403 1400 1397 1394 1390 1387 1384 1381 1377 1374 1370 1366 1363 1359 1355 1351 1348 1345 1342 1340 1338 1336 1335 1334 1334 1333 1333 1333 1334
1423 1422 1421 1419 1418 1417 1415 1413 1411 1409 1407 1405 1403 1401 1399 1396 1394 1391 1388 1384 1381 1378 1375 1371 1368 1364 1361 1358 1354 1350 1346 1343 1339 1337 1335 1333 1332 1331 1331 1330 1330 1330 1330 1330